« Back
NWS Peachtree City, Ga » Text Product » GA Regional Weather Roundup


Printer-friendly Version
Current Version              Previous Versions:   1  2  3  4  5  6  7  8  9  

Regional Weather Roundup

145
ASUS42 KFFC 311403
RWRGA
WEATHER ROUNDUP FOR GEORGIA
NATIONAL WEATHER SERVICE PEACHTREE CITY GA
1000 AM EDT WED AUG 31 2016

NOTE: "FAIR" INDICATES FEW OR NO CLOUDS BELOW 12,000 FEET WITH NO
SIGNIFICANT WEATHER AND/OR OBSTRUCTIONS TO VISIBILITY.

* = USE WITH CAUTION. THE STATIONS MARKED WITH AN ASTERISK MAY NOT
REPORT WEATHER SUCH AS PRECIPITATION, FOG, OR THUNDER AND ARE NOT
QUALITY CONTROLLED BY NWS.

THE REMARK "TC" DENOTES TEMPERATURE READING IN DEGREES CELSIUS.

GAZ001>058-311500-
NORTH GEORGIA

CITY           SKY/WX    TMP DP  RH WIND       PRES   REMARKS
ATLANTA        SUNNY     81  70  69 NE9       30.02R
ATHENS         SUNNY     81  72  74 CALM      30.02S
CHAMBLEE       SUNNY     82  68  62 CALM      30.02S
PEACHTREE CITY SUNNY     79  71  76 VRB5      30.01S
ROME           SUNNY     79  68  69 CALM      30.01S
WEST ATLANTA   SUNNY     80  69  69 N5        30.02R
GAINESVILLE    SUNNY     81  66  60 NE7       30.06S
CARTERSVILLE   SUNNY     81  67  62 NE3       30.03S


CITY           SKY/WX    TMP DP  RH WIND       PRES   REMARKS
DALTON*        SUNNY     79  68  69 CALM      30.02F
MARIETTA       MOSUNNY   80  69  67 NE5       30.03R
KENNESAW*      SUNNY     79  68  69 E6        30.00S
CANTON*        SUNNY    N/A N/A N/A CALM      30.05S
BLAIRSVILLE*     N/A    N/A N/A N/A MISG      30.09F
$$

GAZ059>098-102>109-311500-
CENTRAL GEORGIA

CITY           SKY/WX    TMP DP  RH WIND       PRES   REMARKS
AUGUSTA-BUSH   PTSUNNY   80  73  79 CALM      29.98S
AUGUSTA-DANIEL SUNNY     83  71  67 NE8       30.00R
COLUMBUS       SUNNY     81  68  64 E9        29.96S
MACON          SUNNY     82  71  69 NE9       29.97S
ROBINS AFB     MOSUNNY   81  72  76 VRB7      29.96S


CITY           SKY/WX    TMP DP  RH WIND       PRES   REMARKS
LAGRANGE*      SUNNY     82  75  78 NE6       30.00R
MILLEDGEVILLE* PTSUNNY   81  73  78 NE3       29.99R
$$

GAZ099>101-110>166-311500-
SOUTH GEORGIA

CITY           SKY/WX    TMP DP  RH WIND       PRES   REMARKS
SAVANNAH       PTSUNNY   78  74  87 NE8       29.94S
VALDOSTA       CLOUDY    79  75  87 E6        29.92R
ALMA           CLOUDY    79  74  84 NE7       29.92R
ST SIMONS      CLOUDY    77  75  93 SW8       29.91R
FT STEWART     PTSUNNY   79  76  89 NE7       29.90S
ALBANY         SUNNY     83  70  64 E9        29.95R
HUNTER AFB     PTSUNNY   82  78  90 E15       29.91S HX  91
MOODY AFB      CLOUDY    79  73  81 NE6       29.91S
BRUNSWICK      PTSUNNY   81  79  94 S9        29.91R


CITY           SKY/WX    TMP DP  RH WIND       PRES   REMARKS
BAINBRIDGE*    MOSUNNY   81  72  74 CALM      29.93R
MOULTRIE*      SUNNY     81  72  74 E6        29.94R
VIDALIA*       CLOUDY    79  77  94 NE14G20   29.95S
WAYCROSS*      RAIN      79  79 100 CALM      29.92S
DOUGLAS*       CLOUDY    77  73  88 E6        29.94R
$$




USA.gov is the U.S. government's official web portal to all federal, state and local government web resources and services.